Cloud_Cover
0 0 0 0 0 4 17 28 57 70 11 0 1 0 1 0 0 0 1 0 0 4
57 0 0 40 0 0 0 62 16 19 0 2 0 1 5 5 5 5 17 9 3 1
13 63 27 10 0 0 0 0 0 3 0 0 0 0 0 3 6 37 8 2 4 0
2 42 86 92 27 4 0 4 3 1 0 1 0 0 0 0 1 0 0 0 0 0
0 4 34 55 23 100 98 10 0 4 4 1 5 22 7 3 0 2 0 0 0 0
3 36 32 72 61 10 92 100 100 80 50 98 84 100 23 20 92 5 5 4 5 12
1 1 0 0 62 20 75 92 92 80 93 100 100 78 88 95 23 34 8 17 27 100
0 1 14 70 7 4 5 52 6 12 6 50 16 3 2 4 19 45 36 8 68 69
0 0 0 10 5 10 68 19 1 5 1 0 0 0 0 0 4 3 4 1 3 0
5 3 7 5 5 34 100 100 88 30 31 50 14 4 5 40 100 100 100 27 0 6
100 65 47 5 0 5 91 100 98 92 100 100 100 100 97 92 100 100 71 52 31 18
100 100 100 100 96 10 94 54 100 99 77 100 100 82 98 84 99 99 67 100 100 98
100 100 100 100 58 27 61 87 100 100 100 100 100 99 100 100 100 100 100 100 100 100
100 100 100 100 100 100 100 100 100 100 100 100 100 100 100 100 100 100 100 100 100 100